Tracking 35274 objects as of 10-Sep-2026
HD Live streaming from Space Station
objects crossing your sky now

STARLINK-6261

Track STARLINK-6261 now!
10-day predictions
STARLINK-6261 is classified as:


NORAD ID: 56417
Int'l Code: 2023-061AV
Launch date: May 4, 2023
Source: United States (US)
Launch site: AIR FORCE EASTERN TEST RANGE (AFETR)
Your satellite tracking list
Your tracking list is empty




NASA's NSSDC Master Catalog

Two Line Element Set (TLE):
1 56417U 23061AV  26252.41060914  .00001348  00000-0  58490-4 0  9993
2 56417  43.0019 229.3637 0001702 280.7572  79.3088 15.27580716184971
Source of the keplerian elements: AFSPC